Terminal Aerodrome Forecast
Issued by NWS Bismarck, ND

Home | Current Version | Previous Version | Graphics & Text | Print | Product List | Glossary On
Versions: 1 2 3 4 5 6 7 8 9 10 11 12 13 14 15 16 17 18 19 20 21 22 23 24
000
FTUS43 KBIS 191500 AAB
TAFISN
TAF AMD
KISN 191508Z 1915/2012 00000KT 1/4SM FZFG VV002
     FM191600 00000KT 1/2SM FZFG BKN003
     FM191700 25005KT P6SM SCT050
     FM200100 17003KT P6SM SCT100=

USA.gov is the U.S. government's official web portal to all federal, state and local government web resources and services.